Wetterdaten: Samstag, 24.12.2016
Datum Zeit Temp. Auen Feucht Auen Luftdruck Regen Richtung Richtung Windben
24.12.2016 00:00 -0,1 C 95 % 1033,7 hPa 0,0 mm W 264 0,0 km/h (0 Bft)
24.12.2016 00:05 -0,1 C 95 % 1033,6 hPa 0,0 mm W 264 4,8 km/h (1 Bft)
24.12.2016 00:10 -0,1 C 95 % 1033,6 hPa 0,0 mm W 264 4,8 km/h (1 Bft)
24.12.2016 00:15 -0,1 C 95 % 1033,5 hPa 0,0 mm W 264 1,6 km/h (1 Bft)
24.12.2016 00:20 -0,2 C 95 % 1033,5 hPa 0,0 mm W 264 0,0 km/h (0 Bft)
24.12.2016 00:25 -0,2 C 95 % 1033,5 hPa 0,0 mm W 264 0,0 km/h (0 Bft)
24.12.2016 00:30 -0,2 C 96 % 1033,5 hPa 0,0 mm W 264 1,6 km/h (1 Bft)
24.12.2016 00:35 -0,2 C 96 % 1033,6 hPa 0,0 mm W 264 3,2 km/h (1 Bft)
24.12.2016 00:40 -0,2 C 96 % 1033,6 hPa 0,0 mm W 264 4,8 km/h (1 Bft)
24.12.2016 00:45 -0,2 C 96 % 1033,6 hPa 0,0 mm W-SW 255 6,4 km/h (2 Bft)
24.12.2016 00:50 -0,2 C 96 % 1033,7 hPa 0,0 mm W 259 6,4 km/h (2 Bft)
24.12.2016 00:55 -0,2 C 96 % 1033,6 hPa 0,0 mm W 259 4,8 km/h (1 Bft)
24.12.2016 01:00 -0,3 C 96 % 1033,5 hPa 0,0 mm W-SW 252 6,4 km/h (2 Bft)
24.12.2016 01:05 -0,3 C 96 % 1033,5 hPa 0,0 mm W 268 6,4 km/h (2 Bft)
24.12.2016 01:10 -0,4 C 95 % 1033,5 hPa 0,0 mm W-NW 286 8,0 km/h (2 Bft)
24.12.2016 01:15 -0,4 C 95 % 1033,5 hPa 0,0 mm W-NW 286 4,8 km/h (1 Bft)
24.12.2016 01:20 -0,4 C 95 % 1033,4 hPa 0,0 mm W-SW 258 6,4 km/h (2 Bft)
24.12.2016 01:25 -0,4 C 95 % 1033,3 hPa 0,0 mm W 274 6,4 km/h (2 Bft)
24.12.2016 01:30 -0,5 C 95 % 1033,3 hPa 0,0 mm W 274 3,2 km/h (1 Bft)
24.12.2016 01:35 -0,5 C 95 % 1033,4 hPa 0,0 mm W 265 8,0 km/h (2 Bft)
24.12.2016 01:40 -0,6 C 96 % 1033,3 hPa 0,0 mm W 273 4,8 km/h (1 Bft)
24.12.2016 01:45 -0,6 C 96 % 1033,3 hPa 0,0 mm W 273 4,8 km/h (1 Bft)
24.12.2016 01:50 -0,6 C 96 % 1033,4 hPa 0,0 mm W 273 4,8 km/h (1 Bft)
24.12.2016 01:55 -0,6 C 96 % 1033,5 hPa 0,0 mm W 273 4,8 km/h (1 Bft)
24.12.2016 02:00 -0,6 C 96 % 1033,6 hPa 0,0 mm W-SW 256 9,7 km/h (2 Bft)
24.12.2016 02:05 -0,6 C 96 % 1033,7 hPa 0,0 mm W-NW 292 11,3 km/h (2 Bft)
24.12.2016 02:10 -0,6 C 95 % 1033,8 hPa 0,0 mm W 265 9,7 km/h (2 Bft)
24.12.2016 02:15 -0,6 C 96 % 1033,8 hPa 0,0 mm W 274 14,5 km/h (3 Bft)
24.12.2016 02:20 -0,6 C 95 % 1033,7 hPa 0,0 mm W 267 11,3 km/h (2 Bft)
24.12.2016 02:25 -0,7 C 96 % 1033,7 hPa 0,0 mm W-NW 284 6,4 km/h (2 Bft)
24.12.2016 02:30 -0,7 C 95 % 1033,6 hPa 0,0 mm W-NW 289 8,0 km/h (2 Bft)
24.12.2016 02:35 -0,7 C 95 % 1033,6 hPa 0,0 mm W 266 6,4 km/h (2 Bft)
24.12.2016 02:40 -0,7 C 95 % 1033,5 hPa 0,0 mm W 273 6,4 km/h (2 Bft)
24.12.2016 02:45 -0,7 C 96 % 1033,4 hPa 0,0 mm W 277 6,4 km/h (2 Bft)
24.12.2016 02:50 -0,7 C 96 % 1033,4 hPa 0,0 mm W 279 3,2 km/h (1 Bft)
24.12.2016 02:55 -0,7 C 96 % 1033,4 hPa 0,0 mm W 275 4,8 km/h (1 Bft)
24.12.2016 03:00 -0,7 C 96 % 1033,5 hPa 0,0 mm W 280 9,7 km/h (2 Bft)
24.12.2016 03:05 -0,7 C 96 % 1033,7 hPa 0,0 mm W 263 8,0 km/h (2 Bft)
24.12.2016 03:10 -0,7 C 96 % 1033,8 hPa 0,0 mm W 265 8,0 km/h (2 Bft)
24.12.2016 03:15 -0,7 C 96 % 1033,8 hPa 0,0 mm W 276 11,3 km/h (2 Bft)
24.12.2016 03:20 -0,6 C 96 % 1033,7 hPa 0,0 mm W 259 12,9 km/h (3 Bft)
24.12.2016 03:25 -0,6 C 96 % 1033,7 hPa 0,0 mm W-SW 240 11,3 km/h (2 Bft)
24.12.2016 03:30 -0,5 C 96 % 1033,8 hPa 0,0 mm W-SW 238 16,1 km/h (3 Bft)
24.12.2016 03:35 -0,5 C 96 % 1033,8 hPa 0,0 mm W 281 9,7 km/h (2 Bft)
24.12.2016 03:40 -0,4 C 96 % 1033,8 hPa 0,0 mm W-SW 255 8,0 km/h (2 Bft)
24.12.2016 03:45 -0,4 C 96 % 1033,8 hPa 0,0 mm W 265 8,0 km/h (2 Bft)
24.12.2016 03:50 -0,4 C 96 % 1033,7 hPa 0,0 mm W 265 8,0 km/h (2 Bft)
24.12.2016 03:55 -0,4 C 96 % 1033,6 hPa 0,0 mm W 271 4,8 km/h (1 Bft)
24.12.2016 04:00 -0,4 C 96 % 1033,4 hPa 0,0 mm W 271 8,0 km/h (2 Bft)
24.12.2016 04:05 -0,4 C 96 % 1033,3 hPa 0,0 mm W 279 3,2 km/h (1 Bft)
24.12.2016 04:10 -0,4 C 96 % 1033,3 hPa 0,0 mm W 279 4,8 km/h (1 Bft)
24.12.2016 04:15 -0,4 C 96 % 1033,2 hPa 0,0 mm W 279 4,8 km/h (1 Bft)
24.12.2016 04:20 -0,4 C 96 % 1033,2 hPa 0,0 mm W 279 3,2 km/h (1 Bft)
24.12.2016 04:25 -0,4 C 96 % 1033,1 hPa 0,0 mm W 269 4,8 km/h (1 Bft)
24.12.2016 04:30 -0,4 C 96 % 1033,0 hPa 0,0 mm W 268 4,8 km/h (1 Bft)
24.12.2016 04:35 -0,4 C 96 % 1033,1 hPa 0,0 mm W 268 3,2 km/h (1 Bft)
24.12.2016 04:40 -0,5 C 96 % 1033,0 hPa 0,0 mm W 268 1,6 km/h (1 Bft)
24.12.2016 04:45 -0,4 C 96 % 1033,0 hPa 0,0 mm W 268 3,2 km/h (1 Bft)
24.12.2016 04:50 -0,5 C 96 % 1033,2 hPa 0,0 mm W 268 4,8 km/h (1 Bft)
24.12.2016 04:55 -0,5 C 96 % 1033,4 hPa 0,0 mm W 268 3,2 km/h (1 Bft)
24.12.2016 05:00 -0,5 C 96 % 1033,3 hPa 0,0 mm W 268 3,2 km/h (1 Bft)
24.12.2016 05:05 -0,6 C 96 % 1033,5 hPa 0,0 mm W 268 4,8 km/h (1 Bft)
24.12.2016 05:10 -0,6 C 96 % 1033,9 hPa 0,0 mm W-SW 250 8,0 km/h (2 Bft)
24.12.2016 05:15 -0,6 C 96 % 1033,8 hPa 0,0 mm W-NW 286 16,1 km/h (3 Bft)
24.12.2016 05:20 -0,6 C 96 % 1034,0 hPa 0,0 mm W 261 22,5 km/h (4 Bft)
24.12.2016 05:25 -0,6 C 96 % 1034,1 hPa 0,0 mm W 262 12,9 km/h (3 Bft)
24.12.2016 05:30 -0,6 C 96 % 1034,1 hPa 0,0 mm W 269 11,3 km/h (2 Bft)
24.12.2016 05:35 -0,5 C 96 % 1034,0 hPa 0,0 mm W 267 9,7 km/h (2 Bft)
24.12.2016 05:40 -0,5 C 96 % 1034,0 hPa 0,0 mm W-NW 287 8,0 km/h (2 Bft)
24.12.2016 05:45 -0,4 C 96 % 1034,0 hPa 0,0 mm W 281 6,4 km/h (2 Bft)
24.12.2016 05:50 -0,4 C 96 % 1034,0 hPa 0,0 mm W-NW 290 8,0 km/h (2 Bft)
24.12.2016 05:55 -0,4 C 96 % 1034,1 hPa 0,0 mm W 275 4,8 km/h (1 Bft)
24.12.2016 06:00 -0,4 C 96 % 1034,3 hPa 0,0 mm W 267 6,4 km/h (2 Bft)
24.12.2016 06:05 -0,4 C 96 % 1034,1 hPa 0,0 mm W-NW 284 6,4 km/h (2 Bft)
24.12.2016 06:10 -0,3 C 96 % 1034,1 hPa 0,0 mm W-NW 288 6,4 km/h (2 Bft)
24.12.2016 06:15 -0,3 C 96 % 1033,9 hPa 0,0 mm W-NW 285 8,0 km/h (2 Bft)
24.12.2016 06:20 -0,3 C 96 % 1033,7 hPa 0,0 mm W 277 8,0 km/h (2 Bft)
24.12.2016 06:25 -0,3 C 96 % 1033,7 hPa 0,0 mm W-SW 258 6,4 km/h (2 Bft)
24.12.2016 06:30 -0,3 C 96 % 1033,5 hPa 0,0 mm W 269 8,0 km/h (2 Bft)
24.12.2016 06:35 -0,3 C 96 % 1033,5 hPa 0,0 mm W-NW 288 4,8 km/h (1 Bft)
24.12.2016 06:40 -0,3 C 96 % 1033,5 hPa 0,0 mm W 281 6,4 km/h (2 Bft)
24.12.2016 06:45 -0,3 C 96 % 1033,4 hPa 0,0 mm W 270 8,0 km/h (2 Bft)
24.12.2016 06:50 -0,3 C 96 % 1033,4 hPa 0,0 mm W 271 8,0 km/h (2 Bft)
24.12.2016 06:55 -0,4 C 96 % 1033,3 hPa 0,0 mm W 267 4,8 km/h (1 Bft)
24.12.2016 07:00 -0,4 C 96 % 1033,4 hPa 0,0 mm W 277 4,8 km/h (1 Bft)
24.12.2016 07:05 -0,4 C 96 % 1033,5 hPa 0,0 mm W 277 3,2 km/h (1 Bft)
24.12.2016 07:10 -0,4 C 96 % 1033,6 hPa 0,0 mm W 277 4,8 km/h (1 Bft)
24.12.2016 07:15 -0,4 C 96 % 1033,5 hPa 0,0 mm W 277 3,2 km/h (1 Bft)
24.12.2016 07:20 -0,5 C 96 % 1033,5 hPa 0,0 mm W 277 0,0 km/h (0 Bft)
24.12.2016 07:25 -0,5 C 96 % 1033,5 hPa 0,0 mm W 277 0,0 km/h (0 Bft)
24.12.2016 07:30 -0,5 C 96 % 1033,5 hPa 0,0 mm W 277 0,0 km/h (0 Bft)
24.12.2016 07:35 -0,5 C 96 % 1033,4 hPa 0,0 mm W 277 0,0 km/h (0 Bft)
24.12.2016 07:40 -0,6 C 96 % 1033,3 hPa 0,0 mm W 277 0,0 km/h (0 Bft)
24.12.2016 07:45 -0,6 C 96 % 1033,3 hPa 0,0 mm W 277 0,0 km/h (0 Bft)
24.12.2016 07:50 -0,6 C 96 % 1033,3 hPa 0,0 mm W 277 3,2 km/h (1 Bft)
24.12.2016 07:55 -0,5 C 96 % 1033,2 hPa 0,0 mm W 269 4,8 km/h (1 Bft)
24.12.2016 08:00 -0,4 C 96 % 1033,4 hPa 0,0 mm W-SW 258 6,4 km/h (2 Bft)
24.12.2016 08:05 -0,4 C 96 % 1033,4 hPa 0,0 mm W 261 4,8 km/h (1 Bft)
24.12.2016 08:10 -0,4 C 96 % 1033,3 hPa 0,0 mm W 261 3,2 km/h (1 Bft)
24.12.2016 08:15 -0,3 C 96 % 1033,3 hPa 0,0 mm W 261 3,2 km/h (1 Bft)
24.12.2016 08:20 -0,3 C 96 % 1033,3 hPa 0,0 mm W 261 0,0 km/h (0 Bft)
24.12.2016 08:25 -0,3 C 96 % 1033,3 hPa 0,0 mm W 261 0,0 km/h (0 Bft)
24.12.2016 08:30 -0,3 C 96 % 1033,1 hPa 0,0 mm W 261 0,0 km/h (0 Bft)
24.12.2016 08:35 -0,2 C 96 % 1033,2 hPa 0,0 mm W 261 1,6 km/h (1 Bft)
24.12.2016 08:40 -0,1 C 96 % 1033,2 hPa 0,0 mm W 261 3,2 km/h (1 Bft)
24.12.2016 08:45 -0,1 C 96 % 1033,3 hPa 0,0 mm W 261 3,2 km/h (1 Bft)
24.12.2016 08:50 0,1 C 96 % 1033,2 hPa 0,0 mm W 261 0,0 km/h (0 Bft)
24.12.2016 08:55 0,1 C 96 % 1033,2 hPa 0,0 mm W 261 1,6 km/h (1 Bft)
24.12.2016 09:00 0,1 C 96 % 1033,2 hPa 0,0 mm W 261 0,0 km/h (0 Bft)
24.12.2016 09:05 0,2 C 96 % 1033,1 hPa 0,0 mm W 261 0,0 km/h (0 Bft)
24.12.2016 09:10 0,2 C 96 % 1033,2 hPa 0,0 mm W 261 0,0 km/h (0 Bft)
24.12.2016 09:15 0,2 C 96 % 1033,2 hPa 0,0 mm W 261 0,0 km/h (0 Bft)
24.12.2016 09:20 0,3 C 96 % 1033,1 hPa 0,0 mm W 261 1,6 km/h (1 Bft)
24.12.2016 09:25 0,4 C 96 % 1033,2 hPa 0,0 mm W 261 1,6 km/h (1 Bft)
24.12.2016 09:30 0,4 C 96 % 1033,2 hPa 0,0 mm W 261 0,0 km/h (0 Bft)
24.12.2016 09:35 0,6 C 96 % 1033,2 hPa 0,0 mm W 261 1,6 km/h (1 Bft)
24.12.2016 09:40 0,6 C 96 % 1033,2 hPa 0,0 mm W 261 3,2 km/h (1 Bft)
24.12.2016 09:45 0,7 C 96 % 1033,2 hPa 0,0 mm W 261 1,6 km/h (1 Bft)
24.12.2016 09:50 0,8 C 96 % 1033,2 hPa 0,0 mm W 261 0,0 km/h (0 Bft)
24.12.2016 09:55 0,8 C 96 % 1033,4 hPa 0,0 mm W 261 0,0 km/h (0 Bft)
24.12.2016 10:00 0,8 C 96 % 1033,5 hPa 0,0 mm W 261 0,0 km/h (0 Bft)
24.12.2016 10:05 0,9 C 96 % 1033,5 hPa 0,0 mm W 261 0,0 km/h (0 Bft)
24.12.2016 10:10 0,9 C 96 % 1033,5 hPa 0,0 mm W 261 0,0 km/h (0 Bft)
24.12.2016 10:15 1,1 C 96 % 1033,5 hPa 0,0 mm W 261 0,0 km/h (0 Bft)
24.12.2016 10:20 1,2 C 96 % 1033,5 hPa 0,0 mm W 261 0,0 km/h (0 Bft)
24.12.2016 10:25 1,2 C 96 % 1033,4 hPa 0,0 mm W 261 3,2 km/h (1 Bft)
24.12.2016 10:30 1,3 C 96 % 1033,3 hPa 0,0 mm W 261 1,6 km/h (1 Bft)
24.12.2016 10:35 1,3 C 96 % 1033,4 hPa 0,0 mm W 261 0,0 km/h (0 Bft)
24.12.2016 10:40 1,3 C 96 % 1033,4 hPa 0,0 mm W 261 1,6 km/h (1 Bft)
24.12.2016 10:45 1,2 C 96 % 1033,3 hPa 0,0 mm W 261 0,0 km/h (0 Bft)
24.12.2016 10:50 1,3 C 96 % 1033,3 hPa 0,0 mm W 261 0,0 km/h (0 Bft)
24.12.2016 10:55 1,2 C 96 % 1033,2 hPa 0,0 mm W 261 0,0 km/h (0 Bft)
24.12.2016 11:00 1,3 C 96 % 1033,2 hPa 0,0 mm W 261 0,0 km/h (0 Bft)
24.12.2016 11:05 1,4 C 96 % 1033,2 hPa 0,0 mm W 261 0,0 km/h (0 Bft)
24.12.2016 11:10 1,6 C 96 % 1033,1 hPa 0,0 mm W 261 1,6 km/h (1 Bft)
24.12.2016 11:15 1,6 C 96 % 1032,9 hPa 0,0 mm W 261 0,0 km/h (0 Bft)
24.12.2016 11:20 1,7 C 96 % 1032,7 hPa 0,0 mm W-SW 250 0,0 km/h (0 Bft)
24.12.2016 11:25 1,6 C 96 % 1032,7 hPa 0,0 mm W-SW 250 0,0 km/h (0 Bft)
24.12.2016 11:30 1,8 C 96 % 1032,8 hPa 0,0 mm W-SW 250 0,0 km/h (0 Bft)
24.12.2016 11:35 1,8 C 96 % 1032,8 hPa 0,0 mm W-SW 243 0,0 km/h (0 Bft)
24.12.2016 11:40 1,7 C 96 % 1032,7 hPa 0,0 mm SW 232 0,0 km/h (0 Bft)
24.12.2016 11:45 1,9 C 96 % 1032,6 hPa 0,0 mm SW 232 0,0 km/h (0 Bft)
24.12.2016 11:50 2,1 C 96 % 1032,6 hPa 0,0 mm SW 232 0,0 km/h (0 Bft)
24.12.2016 11:55 2,1 C 96 % 1032,6 hPa 0,0 mm SW 232 0,0 km/h (0 Bft)
24.12.2016 12:00 2,2 C 96 % 1032,5 hPa 0,0 mm SW 232 0,0 km/h (0 Bft)
24.12.2016 12:05 2,4 C 96 % 1032,3 hPa 0,0 mm SW 232 0,0 km/h (0 Bft)
24.12.2016 12:10 2,7 C 96 % 1032,1 hPa 0,0 mm SW 232 0,0 km/h (0 Bft)
24.12.2016 12:15 3,1 C 96 % 1032,1 hPa 0,0 mm SW 232 0,0 km/h (0 Bft)
24.12.2016 12:20 3,3 C 96 % 1032,0 hPa 0,0 mm SW 232 0,0 km/h (0 Bft)
24.12.2016 12:25 3,2 C 96 % 1031,8 hPa 0,0 mm S 186 3,2 km/h (1 Bft)
24.12.2016 12:30 3,2 C 96 % 1031,6 hPa 0,0 mm S 186 0,0 km/h (0 Bft)
24.12.2016 12:35 3,3 C 96 % 1031,4 hPa 0,0 mm SO 134 3,2 km/h (1 Bft)
24.12.2016 12:40 3,4 C 95 % 1031,3 hPa 0,0 mm O-SO 118 4,8 km/h (1 Bft)
24.12.2016 12:45 3,3 C 95 % 1031,2 hPa 0,0 mm O-SO 121 4,8 km/h (1 Bft)
24.12.2016 12:50 3,2 C 95 % 1031,2 hPa 0,0 mm O-SO 121 3,2 km/h (1 Bft)
24.12.2016 12:55 3,3 C 95 % 1031,0 hPa 0,0 mm O-SO 121 1,6 km/h (1 Bft)
24.12.2016 13:00 3,5 C 95 % 1030,8 hPa 0,0 mm O-SO 121 3,2 km/h (1 Bft)
24.12.2016 13:05 3,6 C 95 % 1030,8 hPa 0,0 mm O-SO 121 1,6 km/h (1 Bft)
24.12.2016 13:10 3,8 C 95 % 1030,7 hPa 0,0 mm O-SO 121 1,6 km/h (1 Bft)
24.12.2016 13:15 3,9 C 95 % 1030,7 hPa 0,0 mm O-SO 121 1,6 km/h (1 Bft)
24.12.2016 13:20 4,0 C 95 % 1030,6 hPa 0,0 mm O-SO 121 1,6 km/h (1 Bft)
24.12.2016 13:25 3,9 C 95 % 1030,6 hPa 0,0 mm O-SO 121 1,6 km/h (1 Bft)
24.12.2016 13:30 3,9 C 95 % 1030,5 hPa 0,0 mm O-SO 121 1,6 km/h (1 Bft)
24.12.2016 13:35 4,0 C 95 % 1030,4 hPa 0,0 mm O-SO 121 0,0 km/h (0 Bft)
24.12.2016 13:40 4,2 C 95 % 1030,5 hPa 0,0 mm O-SO 121 3,2 km/h (1 Bft)
24.12.2016 13:45 4,3 C 95 % 1030,5 hPa 0,0 mm O-SO 121 3,2 km/h (1 Bft)
24.12.2016 13:50 4,3 C 94 % 1030,5 hPa 0,0 mm SW 226 3,2 km/h (1 Bft)
24.12.2016 13:55 4,4 C 94 % 1030,6 hPa 0,0 mm W 270 4,8 km/h (1 Bft)
24.12.2016 14:00 4,4 C 94 % 1030,6 hPa 0,0 mm W 270 4,8 km/h (1 Bft)
24.12.2016 14:05 4,4 C 94 % 1030,5 hPa 0,0 mm W 270 4,8 km/h (1 Bft)
24.12.2016 14:10 4,4 C 94 % 1030,4 hPa 0,0 mm W 270 4,8 km/h (1 Bft)
24.12.2016 14:15 4,4 C 94 % 1030,5 hPa 0,0 mm W 269 4,8 km/h (1 Bft)
24.12.2016 14:20 4,4 C 93 % 1030,6 hPa 0,0 mm W 269 4,8 km/h (1 Bft)
24.12.2016 14:25 4,4 C 93 % 1030,5 hPa 0,0 mm W 269 1,6 km/h (1 Bft)
24.12.2016 14:30 4,6 C 93 % 1030,4 hPa 0,0 mm W 281 4,8 km/h (1 Bft)
24.12.2016 14:35 4,8 C 92 % 1030,5 hPa 0,0 mm W 279 4,8 km/h (1 Bft)
24.12.2016 14:40 4,9 C 91 % 1030,5 hPa 0,0 mm W 279 4,8 km/h (1 Bft)
24.12.2016 14:45 4,8 C 91 % 1030,6 hPa 0,0 mm W 278 4,8 km/h (1 Bft)
24.12.2016 14:50 4,7 C 91 % 1030,6 hPa 0,0 mm W 279 1,6 km/h (1 Bft)
24.12.2016 14:55 4,7 C 91 % 1030,5 hPa 0,0 mm W 279 1,6 km/h (1 Bft)
24.12.2016 15:00 4,7 C 90 % 1030,5 hPa 0,0 mm W 279 4,8 km/h (1 Bft)
24.12.2016 15:05 4,7 C 90 % 1030,7 hPa 0,0 mm W 275 6,4 km/h (2 Bft)
24.12.2016 15:10 4,7 C 90 % 1030,9 hPa 0,0 mm W 263 8,0 km/h (2 Bft)
24.12.2016 15:15 4,7 C 91 % 1031,0 hPa 0,2 mm W 273 8,0 km/h (2 Bft)
24.12.2016 15:20 4,8 C 92 % 1031,1 hPa 0,0 mm W-SW 252 9,7 km/h (2 Bft)
24.12.2016 15:25 4,8 C 92 % 1031,1 hPa 0,2 mm W-NW 282 9,7 km/h (2 Bft)
24.12.2016 15:30 4,8 C 92 % 1031,2 hPa 0,2 mm W 267 11,3 km/h (2 Bft)
24.12.2016 15:35 4,7 C 93 % 1031,3 hPa 0,2 mm W-NW 284 8,0 km/h (2 Bft)
24.12.2016 15:40 4,6 C 93 % 1031,2 hPa 0,0 mm W 264 9,7 km/h (2 Bft)
24.12.2016 15:45 4,5 C 93 % 1031,3 hPa 0,2 mm W 267 6,4 km/h (2 Bft)
24.12.2016 15:50 4,4 C 93 % 1031,2 hPa 0,0 mm W 261 6,4 km/h (2 Bft)
24.12.2016 15:55 4,4 C 94 % 1031,3 hPa 0,0 mm W 281 6,4 km/h (2 Bft)
24.12.2016 16:00 4,3 C 94 % 1031,3 hPa 0,2 mm W 281 4,8 km/h (1 Bft)
24.12.2016 16:05 4,3 C 94 % 1031,4 hPa 0,2 mm W-SW 251 4,8 km/h (1 Bft)
24.12.2016 16:10 4,3 C 94 % 1031,4 hPa 0,2 mm W-SW 242 6,4 km/h (2 Bft)
24.12.2016 16:15 4,3 C 94 % 1031,5 hPa 0,2 mm W 277 4,8 km/h (1 Bft)
24.12.2016 16:20 4,3 C 94 % 1031,5 hPa 0,0 mm W 277 6,4 km/h (2 Bft)
24.12.2016 16:25 4,3 C 94 % 1031,4 hPa 0,2 mm W 260 6,4 km/h (2 Bft)
24.12.2016 16:30 4,3 C 94 % 1031,3 hPa 0,0 mm W-NW 282 8,0 km/h (2 Bft)
24.12.2016 16:35 4,3 C 95 % 1031,3 hPa 0,0 mm W 266 6,4 km/h (2 Bft)
24.12.2016 16:40 4,3 C 95 % 1031,2 hPa 0,0 mm W-SW 254 8,0 km/h (2 Bft)
24.12.2016 16:45 4,3 C 95 % 1031,2 hPa 0,0 mm W 263 6,4 km/h (2 Bft)
24.12.2016 16:50 4,3 C 95 % 1031,3 hPa 0,2 mm W-NW 282 4,8 km/h (1 Bft)
24.12.2016 16:55 4,4 C 95 % 1031,4 hPa 0,0 mm W 267 11,3 km/h (2 Bft)
24.12.2016 17:00 4,5 C 95 % 1031,5 hPa 0,0 mm W-SW 238 17,7 km/h (3 Bft)
24.12.2016 17:05 4,6 C 95 % 1031,5 hPa 0,0 mm W 263 17,7 km/h (3 Bft)
24.12.2016 17:10 4,7 C 95 % 1031,5 hPa 0,0 mm W 265 11,3 km/h (2 Bft)
24.12.2016 17:15 4,7 C 95 % 1031,6 hPa 0,2 mm W 261 11,3 km/h (2 Bft)
24.12.2016 17:20 4,8 C 95 % 1031,6 hPa 0,2 mm W 271 11,3 km/h (2 Bft)
24.12.2016 17:25 4,8 C 95 % 1031,5 hPa 0,2 mm W-NW 294 17,7 km/h (3 Bft)
24.12.2016 17:30 4,9 C 95 % 1031,5 hPa 0,0 mm W 262 12,9 km/h (3 Bft)
24.12.2016 17:35 4,9 C 95 % 1031,6 hPa 0,2 mm W 271 14,5 km/h (3 Bft)
24.12.2016 17:40 4,9 C 95 % 1031,6 hPa 0,2 mm W 259 9,7 km/h (2 Bft)
24.12.2016 17:45 5,0 C 95 % 1031,6 hPa 0,0 mm W 259 12,9 km/h (3 Bft)
24.12.2016 17:50 5,0 C 95 % 1031,5 hPa 0,0 mm W 267 9,7 km/h (2 Bft)
24.12.2016 17:55 5,1 C 95 % 1031,5 hPa 0,2 mm W-NW 290 12,9 km/h (3 Bft)
24.12.2016 18:00 5,1 C 95 % 1031,5 hPa 0,0 mm W 266 11,3 km/h (2 Bft)
24.12.2016 18:05 5,2 C 95 % 1031,6 hPa 0,0 mm W-NW 291 11,3 km/h (2 Bft)
24.12.2016 18:10 5,2 C 95 % 1031,5 hPa 0,0 mm W-SW 254 8,0 km/h (2 Bft)
24.12.2016 18:15 5,2 C 95 % 1031,5 hPa 0,0 mm W 273 11,3 km/h (2 Bft)
24.12.2016 18:20 5,3 C 95 % 1031,6 hPa 0,0 mm W 272 11,3 km/h (2 Bft)
24.12.2016 18:25 5,3 C 95 % 1031,6 hPa 0,0 mm W 279 11,3 km/h (2 Bft)
24.12.2016 18:30 5,3 C 95 % 1031,6 hPa 0,0 mm W-SW 255 9,7 km/h (2 Bft)
24.12.2016 18:35 5,3 C 95 % 1031,6 hPa 0,0 mm W 264 11,3 km/h (2 Bft)
24.12.2016 18:40 5,4 C 95 % 1031,8 hPa 0,2 mm W-NW 288 14,5 km/h (3 Bft)
24.12.2016 18:45 5,4 C 95 % 1031,7 hPa 0,0 mm W-NW 302 9,7 km/h (2 Bft)
24.12.2016 18:50 5,5 C 95 % 1031,7 hPa 0,0 mm W 263 14,5 km/h (3 Bft)
24.12.2016 18:55 5,6 C 95 % 1031,6 hPa 0,0 mm W 267 14,5 km/h (3 Bft)
24.12.2016 19:00 5,6 C 95 % 1031,6 hPa 0,0 mm W 280 16,1 km/h (3 Bft)
24.12.2016 19:05 5,7 C 95 % 1031,6 hPa 0,0 mm W-NW 294 17,7 km/h (3 Bft)
24.12.2016 19:10 5,7 C 95 % 1031,6 hPa 0,0 mm W 269 12,9 km/h (3 Bft)
24.12.2016 19:15 5,7 C 95 % 1031,7 hPa 0,0 mm W 268 14,5 km/h (3 Bft)
24.12.2016 19:20 5,7 C 95 % 1031,6 hPa 0,0 mm W 260 11,3 km/h (2 Bft)
24.12.2016 19:25 5,7 C 95 % 1031,6 hPa 0,0 mm W 262 19,3 km/h (3 Bft)
24.12.2016 19:30 5,8 C 95 % 1031,8 hPa 0,0 mm W 278 22,5 km/h (4 Bft)
24.12.2016 19:35 5,8 C 95 % 1031,9 hPa 0,0 mm W 278 17,7 km/h (3 Bft)
24.12.2016 19:40 5,8 C 95 % 1031,8 hPa 0,0 mm W 279 19,3 km/h (3 Bft)
24.12.2016 19:45 5,8 C 95 % 1031,9 hPa 0,0 mm W 264 16,1 km/h (3 Bft)
24.12.2016 19:50 5,8 C 95 % 1031,9 hPa 0,0 mm W 272 14,5 km/h (3 Bft)
24.12.2016 19:55 5,8 C 95 % 1032,0 hPa 0,0 mm W-SW 257 11,3 km/h (2 Bft)
24.12.2016 20:00 5,8 C 95 % 1031,9 hPa 0,0 mm W 263 14,5 km/h (3 Bft)
24.12.2016 20:05 5,8 C 95 % 1032,0 hPa 0,0 mm W 265 11,3 km/h (2 Bft)
24.12.2016 20:10 5,8 C 95 % 1031,9 hPa 0,0 mm W-SW 252 11,3 km/h (2 Bft)
24.12.2016 20:15 5,8 C 95 % 1031,9 hPa 0,0 mm W-NW 288 12,9 km/h (3 Bft)
24.12.2016 20:20 5,8 C 95 % 1031,8 hPa 0,0 mm W 276 19,3 km/h (3 Bft)
24.12.2016 20:25 5,8 C 95 % 1031,7 hPa 0,0 mm W 267 11,3 km/h (2 Bft)
24.12.2016 20:30 5,8 C 95 % 1031,7 hPa 0,0 mm W-SW 250 14,5 km/h (3 Bft)
24.12.2016 20:35 5,8 C 95 % 1031,6 hPa 0,0 mm W-NW 288 11,3 km/h (2 Bft)
24.12.2016 20:40 5,8 C 95 % 1031,6 hPa 0,0 mm W-SW 244 14,5 km/h (3 Bft)
24.12.2016 20:45 5,8 C 95 % 1031,6 hPa 0,0 mm W-NW 288 12,9 km/h (3 Bft)
24.12.2016 20:50 5,8 C 95 % 1031,7 hPa 0,0 mm W-NW 286 16,1 km/h (3 Bft)
24.12.2016 20:55 5,8 C 95 % 1031,7 hPa 0,0 mm W-SW 257 11,3 km/h (2 Bft)
24.12.2016 21:00 5,8 C 95 % 1031,7 hPa 0,0 mm W 267 8,0 km/h (2 Bft)
24.12.2016 21:05 5,8 C 95 % 1031,6 hPa 0,0 mm W 267 11,3 km/h (2 Bft)
24.12.2016 21:10 5,8 C 95 % 1031,6 hPa 0,0 mm W-SW 248 12,9 km/h (3 Bft)
24.12.2016 21:15 5,7 C 95 % 1031,6 hPa 0,0 mm W 270 8,0 km/h (2 Bft)
24.12.2016 21:20 5,7 C 95 % 1031,7 hPa 0,2 mm W 264 9,7 km/h (2 Bft)
24.12.2016 21:25 5,7 C 95 % 1031,8 hPa 0,0 mm W 260 11,3 km/h (2 Bft)
24.12.2016 21:30 5,7 C 95 % 1031,6 hPa 0,0 mm W 259 11,3 km/h (2 Bft)
24.12.2016 21:35 5,7 C 95 % 1031,5 hPa 0,0 mm W 277 9,7 km/h (2 Bft)
24.12.2016 21:40 5,7 C 95 % 1031,7 hPa 0,0 mm W 277 9,7 km/h (2 Bft)
24.12.2016 21:45 5,6 C 95 % 1031,8 hPa 0,0 mm W 278 9,7 km/h (2 Bft)
24.12.2016 21:50 5,6 C 95 % 1031,9 hPa 0,0 mm W 277 9,7 km/h (2 Bft)
24.12.2016 21:55 5,6 C 95 % 1031,9 hPa 0,0 mm W-SW 245 11,3 km/h (2 Bft)
24.12.2016 22:00 5,6 C 95 % 1031,9 hPa 0,0 mm W-SW 249 9,7 km/h (2 Bft)
24.12.2016 22:05 5,6 C 95 % 1031,8 hPa 0,2 mm W-SW 246 9,7 km/h (2 Bft)
24.12.2016 22:10 5,6 C 95 % 1031,7 hPa 0,2 mm W 269 11,3 km/h (2 Bft)
24.12.2016 22:15 5,6 C 95 % 1031,6 hPa 0,0 mm W 260 9,7 km/h (2 Bft)
24.12.2016 22:20 5,6 C 95 % 1031,7 hPa 0,0 mm W 267 9,7 km/h (2 Bft)
24.12.2016 22:25 5,5 C 95 % 1031,8 hPa 0,0 mm W 259 9,7 km/h (2 Bft)
24.12.2016 22:30 5,5 C 95 % 1031,8 hPa 0,2 mm W 273 11,3 km/h (2 Bft)
24.12.2016 22:35 5,5 C 95 % 1031,8 hPa 0,0 mm W 278 9,7 km/h (2 Bft)
24.12.2016 22:40 5,4 C 95 % 1031,6 hPa 0,0 mm W 265 8,0 km/h (2 Bft)
24.12.2016 22:45 5,4 C 95 % 1031,5 hPa 0,0 mm W 269 6,4 km/h (2 Bft)
24.12.2016 22:50 5,4 C 95 % 1031,4 hPa 0,0 mm W 268 9,7 km/h (2 Bft)
24.12.2016 22:55 5,4 C 95 % 1031,3 hPa 0,0 mm W 265 6,4 km/h (2 Bft)
24.12.2016 23:00 5,3 C 95 % 1031,4 hPa 0,0 mm W 269 4,8 km/h (1 Bft)
24.12.2016 23:05 5,3 C 95 % 1031,4 hPa 0,0 mm W 267 4,8 km/h (1 Bft)
24.12.2016 23:10 5,3 C 95 % 1031,4 hPa 0,0 mm W-NW 288 8,0 km/h (2 Bft)
24.12.2016 23:15 5,3 C 95 % 1031,4 hPa 0,0 mm W 268 6,4 km/h (2 Bft)
24.12.2016 23:20 5,2 C 95 % 1031,4 hPa 0,0 mm W 276 6,4 km/h (2 Bft)
24.12.2016 23:25 5,2 C 95 % 1031,4 hPa 0,0 mm W 280 9,7 km/h (2 Bft)
24.12.2016 23:30 5,3 C 95 % 1031,2 hPa 0,0 mm W 274 12,9 km/h (3 Bft)
24.12.2016 23:35 5,3 C 95 % 1031,2 hPa 0,0 mm W 259 17,7 km/h (3 Bft)
24.12.2016 23:40 5,4 C 95 % 1031,1 hPa 0,0 mm W 275 16,1 km/h (3 Bft)
24.12.2016 23:45 5,4 C 95 % 1031,1 hPa 0,0 mm W-NW 283 14,5 km/h (3 Bft)
24.12.2016 23:50 5,4 C 95 % 1031,1 hPa 0,0 mm W 266 19,3 km/h (3 Bft)
24.12.2016 23:55 5,4 C 95 % 1031,1 hPa 0,0 mm SW 228 14,5 km/h (3 Bft)
_ Min-Zeit 02:20 15:00 13:35 - - - 00:00
Minimum _ -0,7 C 90 % 1030,4 hPa - - - 0,0 km/h (0 Bft)
_ Max-Zeit 19:25 00:30 06:00 15:15 - - 05:20
Maximum _ 5,8 C 96 % 1034,3 hPa 0,2 mm - - 22,5 km/h
W (4 Bft)
Durchschnitt _ 2,4 C 95 % 1032,4 hPa #4,4 mm W - 6,7 km/h (2 Bft)